Time,TemperatureF,DewpointF,PressureIn,WindDirection,WindDirectionDegrees,WindSpeedMPH,WindSpeedGustMPH,Humidity,HourlyPrecipIn,Conditions,Clouds,dailyrainin,SoftwareType,DateUTC
2013-07-15 00:01:00,69.7,64.7,30.13,SE,124,3.0,3.0,84,0.00,,CLR,0.00,VWS V14.01,2013-07-15 05:01:00,
2013-07-15 00:06:00,69.7,65.0,30.13,ESE,118,2.0,4.0,85,0.00,,CLR,0.00,VWS V14.01,2013-07-15 05:06:00,
2013-07-15 00:11:00,69.5,64.8,30.13,ESE,117,2.0,4.0,85,0.00,,CLR,0.00,VWS V14.01,2013-07-15 05:11:00,
2013-07-15 00:16:00,69.4,64.7,30.13,SE,133,1.0,4.0,85,0.00,,CLR,0.00,VWS V14.01,2013-07-15 05:16:00,
2013-07-15 00:21:00,69.4,64.7,30.14,SE,131,1.0,4.0,85,0.00,,CLR,0.00,VWS V14.01,2013-07-15 05:21:00,
2013-07-15 00:26:00,69.3,64.6,30.13,ESE,117,2.0,4.0,85,0.00,,CLR,0.00,VWS V14.01,2013-07-15 05:26:00,
2013-07-15 00:31:00,69.1,64.4,30.13,SE,132,2.0,2.0,85,0.00,,CLR,0.00,VWS V14.01,2013-07-15 05:31:00,
2013-07-15 00:36:00,68.9,64.6,30.13,SE,132,2.0,3.0,86,0.00,,CLR,0.00,VWS V14.01,2013-07-15 05:36:00,
2013-07-15 00:41:00,68.7,64.3,30.13,SE,133,2.0,3.0,86,0.00,,CLR,0.00,VWS V14.01,2013-07-15 05:41:00,
2013-07-15 00:46:00,68.6,64.2,30.13,ESE,120,1.0,3.0,86,0.00,,CLR,0.00,VWS V14.01,2013-07-15 05:46:00,
2013-07-15 00:51:00,68.6,64.2,30.14,ESE,117,1.0,3.0,86,0.00,,CLR,0.00,VWS V14.01,2013-07-15 05:51:00,
2013-07-15 00:56:00,68.6,64.2,30.14,SE,136,1.0,3.0,86,0.00,,CLR,0.00,VWS V14.01,2013-07-15 05:56:00,
2013-07-15 01:01:00,68.5,64.2,30.13,SE,143,1.0,1.0,86,0.00,,CLR,0.00,VWS V14.01,2013-07-15 06:01:00,
2013-07-15 01:06:00,68.4,64.4,30.14,SE,129,2.0,2.0,87,0.00,,CLR,0.00,VWS V14.01,2013-07-15 06:06:00,
2013-07-15 01:11:00,68.3,64.3,30.14,ESE,118,2.0,3.0,87,0.00,,CLR,0.00,VWS V14.01,2013-07-15 06:11:00,
2013-07-15 01:16:00,68.3,64.3,30.14,SE,138,2.0,3.0,87,0.00,,CLR,0.00,VWS V14.01,2013-07-15 06:16:00,
2013-07-15 01:21:00,68.3,64.0,30.14,SE,133,1.0,3.0,86,0.00,,CLR,0.00,VWS V14.01,2013-07-15 06:21:00,
2013-07-15 01:26:00,68.3,64.0,30.14,SE,140,2.0,3.0,86,0.00,,CLR,0.00,VWS V14.01,2013-07-15 06:26:00,
2013-07-15 01:31:00,68.4,64.1,30.14,SE,129,2.0,2.0,86,0.00,,CLR,0.00,VWS V14.01,2013-07-15 06:31:00,
2013-07-15 01:36:00,68.4,64.1,30.14,ESE,118,2.0,2.0,86,0.00,,CLR,0.00,VWS V14.01,2013-07-15 06:36:00,
2013-07-15 01:41:00,68.5,64.2,30.14,SE,126,1.0,2.0,86,0.00,,CLR,0.00,VWS V14.01,2013-07-15 06:41:00,
2013-07-15 01:46:00,68.4,64.1,30.14,SE,138,2.0,2.0,86,0.00,,CLR,0.00,VWS V14.01,2013-07-15 06:46:00,
2013-07-15 01:51:00,68.4,64.1,30.14,ESE,116,1.0,2.0,86,0.00,,CLR,0.00,VWS V14.01,2013-07-15 06:51:00,
2013-07-15 01:56:00,68.4,64.1,30.14,ESE,123,1.0,2.0,86,0.00,,CLR,0.00,VWS V14.01,2013-07-15 06:56:00,
2013-07-15 02:01:00,68.3,64.0,30.14,SE,129,1.0,1.0,86,0.00,,CLR,0.00,VWS V14.01,2013-07-15 07:01:00,
2013-07-15 02:06:00,68.2,63.9,30.14,ESE,118,2.0,2.0,86,0.00,,CLR,0.00,VWS V14.01,2013-07-15 07:06:00,
2013-07-15 02:11:00,68.0,63.7,30.14,SE,134,1.0,3.0,86,0.00,,CLR,0.00,VWS V14.01,2013-07-15 07:11:00,
2013-07-15 02:16:00,68.0,64.0,30.14,SSE,150,1.0,3.0,87,0.00,,CLR,0.00,VWS V14.01,2013-07-15 07:16:00,
2013-07-15 02:21:00,67.9,63.9,30.14,ESE,111,2.0,3.0,87,0.00,,CLR,0.00,VWS V14.01,2013-07-15 07:21:00,
2013-07-15 02:26:00,67.6,63.6,30.14,ESE,121,2.0,3.0,87,0.00,,CLR,0.00,VWS V14.01,2013-07-15 07:26:00,
2013-07-15 02:31:00,67.6,63.6,30.14,ESE,123,2.0,2.0,87,0.00,,CLR,0.00,VWS V14.01,2013-07-15 07:31:00,
2013-07-15 02:36:00,67.5,63.5,30.14,ESE,108,3.0,4.0,87,0.00,,CLR,0.00,VWS V14.01,2013-07-15 07:36:00,
2013-07-15 02:41:00,67.3,63.6,30.14,ESE,113,2.0,4.0,88,0.00,,CLR,0.00,VWS V14.01,2013-07-15 07:41:00,
2013-07-15 02:46:00,67.1,63.4,30.14,SE,133,2.0,4.0,88,0.00,,CLR,0.00,VWS V14.01,2013-07-15 07:46:00,
2013-07-15 02:51:00,66.9,63.2,30.14,ESE,114,1.0,4.0,88,0.00,,CLR,0.00,VWS V14.01,2013-07-15 07:51:00,
2013-07-15 02:56:00,66.8,63.5,30.14,ESE,111,2.0,4.0,89,0.00,,CLR,0.00,VWS V14.01,2013-07-15 07:56:00,
2013-07-15 03:01:00,66.6,63.3,30.14,SE,135,1.0,3.0,89,0.00,,CLR,0.00,VWS V14.01,2013-07-15 08:01:00,
2013-07-15 03:06:00,66.5,63.2,30.14,ESE,111,2.0,3.0,89,0.00,,CLR,0.00,VWS V14.01,2013-07-15 08:06:00,
2013-07-15 03:11:00,66.4,63.4,30.14,SE,132,1.0,3.0,90,0.00,,CLR,0.00,VWS V14.01,2013-07-15 08:11:00,
2013-07-15 03:16:00,66.3,63.3,30.14,ESE,123,3.0,4.0,90,0.00,,CLR,0.00,VWS V14.01,2013-07-15 08:16:00,
2013-07-15 03:21:00,66.2,63.2,30.14,SE,126,2.0,4.0,90,0.00,,CLR,0.00,VWS V14.01,2013-07-15 08:21:00,
2013-07-15 03:26:00,66.2,63.2,30.14,SE,129,3.0,4.0,90,0.00,,CLR,0.00,VWS V14.01,2013-07-15 08:26:00,
2013-07-15 03:31:00,66.0,63.0,30.14,ESE,113,3.0,4.0,90,0.00,,CLR,0.00,VWS V14.01,2013-07-15 08:31:00,
2013-07-15 03:36:00,65.9,62.9,30.14,ESE,111,3.0,4.0,90,0.00,,CLR,0.00,VWS V14.01,2013-07-15 08:36:00,
2013-07-15 03:41:00,65.7,63.0,30.14,ESE,120,2.0,4.0,91,0.00,,CLR,0.00,VWS V14.01,2013-07-15 08:41:00,
2013-07-15 03:46:00,65.6,62.9,30.14,SE,130,1.0,4.0,91,0.00,,CLR,0.00,VWS V14.01,2013-07-15 08:46:00,
2013-07-15 03:51:00,65.5,62.8,30.14,ESE,114,4.0,4.0,91,0.00,,CLR,0.00,VWS V14.01,2013-07-15 08:51:00,
2013-07-15 03:56:00,65.5,62.8,30.14,ESE,122,3.0,4.0,91,0.00,,CLR,0.00,VWS V14.01,2013-07-15 08:56:00,
2013-07-15 04:01:00,65.5,62.8,30.14,ESE,108,3.0,3.0,91,0.00,,CLR,0.00,VWS V14.01,2013-07-15 09:01:00,
2013-07-15 04:06:00,65.6,62.9,30.14,SE,135,2.0,4.0,91,0.00,,CLR,0.00,VWS V14.01,2013-07-15 09:06:00,
2013-07-15 04:11:00,65.7,63.0,30.14,SE,132,2.0,4.0,91,0.00,,CLR,0.00,VWS V14.01,2013-07-15 09:11:00,
2013-07-15 04:16:00,65.7,63.0,30.14,ESE,117,1.0,4.0,91,0.00,,CLR,0.00,VWS V14.01,2013-07-15 09:16:00,
2013-07-15 04:21:00,65.7,63.0,30.14,SE,125,1.0,4.0,91,0.00,,CLR,0.00,VWS V14.01,2013-07-15 09:21:00,
2013-07-15 04:26:00,65.7,63.0,30.14,ESE,113,1.0,4.0,91,0.00,,CLR,0.00,VWS V14.01,2013-07-15 09:26:00,
2013-07-15 04:31:00,65.7,63.0,30.14,ESE,104,2.0,2.0,91,0.00,,CLR,0.00,VWS V14.01,2013-07-15 09:31:00,
2013-07-15 04:36:00,65.7,63.0,30.14,ESE,110,1.0,2.0,91,0.00,,CLR,0.00,VWS V14.01,2013-07-15 09:36:00,
2013-07-15 04:41:00,65.8,63.1,30.14,ESE,122,1.0,2.0,91,0.00,,CLR,0.00,VWS V14.01,2013-07-15 09:41:00,
2013-07-15 04:46:00,65.8,63.1,30.14,SE,126,1.0,2.0,91,0.00,,CLR,0.00,VWS V14.01,2013-07-15 09:46:00,
2013-07-15 04:51:00,65.8,63.1,30.14,ESE,117,1.0,2.0,91,0.00,,CLR,0.00,VWS V14.01,2013-07-15 09:51:00,
2013-07-15 04:56:00,65.8,62.8,30.14,SE,125,1.0,2.0,90,0.00,,,0.00,VWS V14.01,2013-07-15 09:56:00,
2013-07-15 05:01:00,65.8,63.1,30.14,ESE,118,1.0,1.0,91,0.00,,,0.00,VWS V14.01,2013-07-15 10:01:00,
2013-07-15 05:06:00,65.8,62.8,30.14,ESE,123,1.0,3.0,90,0.00,,,0.00,VWS V14.01,2013-07-15 10:06:00,
2013-07-15 05:11:00,65.8,62.8,30.14,SE,142,0.0,3.0,90,0.00,,,0.00,VWS V14.01,2013-07-15 10:11:00,
2013-07-15 05:16:00,65.7,63.0,30.15,SE,125,0.0,3.0,91,0.00,,,0.00,VWS V14.01,2013-07-15 10:16:00,
2013-07-15 05:21:00,65.6,62.9,30.14,ESE,119,1.0,3.0,91,0.00,,,0.00,VWS V14.01,2013-07-15 10:21:00,
2013-07-15 05:26:00,65.6,62.9,30.14,ESE,117,0.0,3.0,91,0.00,,,0.00,VWS V14.01,2013-07-15 10:26:00,
2013-07-15 05:31:00,65.7,63.0,30.14,ESE,112,0.0,0.0,91,0.00,,,0.00,VWS V14.01,2013-07-15 10:31:00,
2013-07-15 05:36:00,65.8,63.1,30.15,ESE,111,0.0,0.0,91,0.00,,,0.00,VWS V14.01,2013-07-15 10:36:00,
2013-07-15 05:41:00,65.8,63.1,30.15,ESE,122,0.0,1.0,91,0.00,,,0.00,VWS V14.01,2013-07-15 10:41:00,
2013-07-15 05:46:00,65.9,62.9,30.15,ESE,122,0.0,1.0,90,0.00,,,0.00,VWS V14.01,2013-07-15 10:46:00,
2013-07-15 05:51:00,65.8,62.8,30.16,SE,129,3.0,3.0,90,0.00,,,0.00,VWS V14.01,2013-07-15 10:51:00,
2013-07-15 05:56:00,65.5,62.8,30.16,East,99,1.0,3.0,91,0.00,,,0.00,VWS V14.01,2013-07-15 10:56:00,
2013-07-15 06:01:00,65.5,62.8,30.16,ESE,108,2.0,2.0,91,0.00,,,0.00,VWS V14.01,2013-07-15 11:01:00,
2013-07-15 06:06:00,65.6,62.9,30.16,ESE,123,2.0,3.0,91,0.00,,,0.00,VWS V14.01,2013-07-15 11:06:00,
2013-07-15 06:11:00,65.6,62.9,30.16,ESE,105,0.0,3.0,91,0.00,,,0.00,VWS V14.01,2013-07-15 11:11:00,
2013-07-15 06:16:00,65.6,62.9,30.16,ESE,103,1.0,3.0,91,0.00,,,0.00,VWS V14.01,2013-07-15 11:16:00,
2013-07-15 06:21:00,65.7,62.7,30.16,ESE,110,1.0,3.0,90,0.00,,,0.00,VWS V14.01,2013-07-15 11:21:00,
2013-07-15 06:26:00,65.7,62.7,30.16,ESE,108,2.0,3.0,90,0.00,,,0.00,VWS V14.01,2013-07-15 11:26:00,
2013-07-15 06:31:00,65.6,62.6,30.16,ESE,106,1.0,1.0,90,0.00,,,0.00,VWS V14.01,2013-07-15 11:31:00,
2013-07-15 06:36:00,65.7,62.7,30.16,ESE,102,0.0,1.0,90,0.00,,,0.00,VWS V14.01,2013-07-15 11:36:00,
2013-07-15 06:41:00,65.9,62.9,30.16,East,101,0.0,1.0,90,0.00,,,0.00,VWS V14.01,2013-07-15 11:41:00,
2013-07-15 06:46:00,66.0,63.0,30.16,East,101,0.0,1.0,90,0.00,,,0.00,VWS V14.01,2013-07-15 11:46:00,
2013-07-15 06:51:00,66.3,63.3,30.16,East,101,0.0,1.0,90,0.00,,,0.00,VWS V14.01,2013-07-15 11:51:00,
2013-07-15 06:55:00,66.6,63.3,30.16,East,101,1.0,3.0,89,0.00,,,0.00,VWS V14.01,2013-07-15 11:55:00,
2013-07-15 07:00:00,66.8,63.5,30.17,ESE,102,2.0,3.0,89,0.00,,,0.00,VWS V14.01,2013-07-15 12:00:00,
2013-07-15 07:05:00,67.0,63.3,30.17,ESE,121,3.0,4.0,88,0.00,,,0.00,VWS V14.01,2013-07-15 12:05:00,
2013-07-15 07:10:00,67.3,63.6,30.17,ESE,115,3.0,6.0,88,0.00,,,0.00,VWS V14.01,2013-07-15 12:10:00,
2013-07-15 07:15:00,67.4,63.4,30.17,ESE,116,5.0,7.0,87,0.00,,,0.00,VWS V14.01,2013-07-15 12:15:00,
2013-07-15 07:20:00,67.5,63.8,30.17,SE,128,4.0,7.0,88,0.00,,,0.00,VWS V14.01,2013-07-15 12:20:00,
2013-07-15 07:25:00,67.7,64.0,30.17,ESE,118,3.0,7.0,88,0.00,,,0.00,VWS V14.01,2013-07-15 12:25:00,
2013-07-15 07:30:00,67.9,63.9,30.17,ESE,116,4.0,4.0,87,0.00,,,0.00,VWS V14.01,2013-07-15 12:30:00,
2013-07-15 07:35:00,68.2,64.2,30.17,ESE,113,3.0,5.0,87,0.00,,,0.00,VWS V14.01,2013-07-15 12:35:00,
2013-07-15 07:40:00,68.5,64.5,30.17,ESE,123,6.0,7.0,87,0.00,,,0.00,VWS V14.01,2013-07-15 12:40:00,
2013-07-15 07:45:00,68.8,64.4,30.17,SE,125,5.0,7.0,86,0.00,,,0.00,VWS V14.01,2013-07-15 12:45:00,
2013-07-15 07:50:00,69.0,64.3,30.18,SE,131,6.0,7.0,85,0.00,,,0.00,VWS V14.01,2013-07-15 12:50:00,
2013-07-15 07:55:00,69.4,64.7,30.18,SE,128,5.0,7.0,85,0.00,,,0.00,VWS V14.01,2013-07-15 12:55:00,
2013-07-15 08:00:00,69.8,65.1,30.18,ESE,114,4.0,7.0,85,0.00,,,0.00,VWS V14.01,2013-07-15 13:00:00,
2013-07-15 08:05:00,70.1,64.7,30.18,SE,138,4.0,7.0,83,0.00,,CLR,0.00,VWS V14.01,2013-07-15 13:05:00,
2013-07-15 08:10:00,70.6,64.8,30.18,ESE,121,5.0,7.0,82,0.00,,CLR,0.00,VWS V14.01,2013-07-15 13:10:00,
2013-07-15 08:15:00,70.9,65.5,30.18,SE,134,3.0,7.0,83,0.00,,CLR,0.00,VWS V14.01,2013-07-15 13:15:00,
2013-07-15 08:20:00,71.4,66.0,30.18,SE,125,3.0,7.0,83,0.00,,CLR,0.00,VWS V14.01,2013-07-15 13:20:00,
2013-07-15 08:25:00,71.6,65.1,30.18,SE,135,3.0,7.0,80,0.00,,CLR,0.00,VWS V14.01,2013-07-15 13:25:00,
2013-07-15 08:30:00,72.2,65.7,30.18,SE,133,4.0,7.0,80,0.00,,CLR,0.00,VWS V14.01,2013-07-15 13:30:00,
2013-07-15 08:35:00,72.5,65.6,30.18,ESE,117,5.0,5.0,79,0.00,,CLR,0.00,VWS V14.01,2013-07-15 13:35:00,
2013-07-15 08:40:00,72.7,65.4,30.18,ESE,122,6.0,8.0,78,0.00,,CLR,0.00,VWS V14.01,2013-07-15 13:40:00,
2013-07-15 08:45:00,73.1,65.8,30.18,SE,127,4.0,8.0,78,0.00,,CLR,0.00,VWS V14.01,2013-07-15 13:45:00,
2013-07-15 08:50:00,73.5,66.2,30.18,SE,131,3.0,8.0,78,0.00,,CLR,0.00,VWS V14.01,2013-07-15 13:50:00,
2013-07-15 08:55:00,73.7,66.1,30.18,ESE,113,5.0,8.0,77,0.00,,CLR,0.00,VWS V14.01,2013-07-15 13:55:00,
2013-07-15 09:00:00,74.1,66.4,30.18,ESE,114,5.0,9.0,77,0.00,,CLR,0.00,VWS V14.01,2013-07-15 14:00:00,
2013-07-15 09:05:00,74.5,67.2,30.18,ESE,104,7.0,8.0,78,0.00,,CLR,0.00,VWS V14.01,2013-07-15 14:05:00,
2013-07-15 09:10:00,74.6,66.2,30.18,SE,141,4.0,9.0,75,0.00,,CLR,0.00,VWS V14.01,2013-07-15 14:10:00,
2013-07-15 09:15:00,75.0,66.6,30.18,SE,143,4.0,9.0,75,0.00,,CLR,0.00,VWS V14.01,2013-07-15 14:15:00,
2013-07-15 09:20:00,75.3,66.4,30.18,ESE,114,8.0,9.0,74,0.00,,CLR,0.00,VWS V14.01,2013-07-15 14:20:00,
2013-07-15 09:25:00,75.6,67.1,30.18,ESE,118,6.0,9.0,75,0.00,,CLR,0.00,VWS V14.01,2013-07-15 14:25:00,
2013-07-15 09:30:00,75.9,67.0,30.18,SE,125,7.0,9.0,74,0.00,,CLR,0.00,VWS V14.01,2013-07-15 14:30:00,
2013-07-15 09:35:00,76.2,67.7,30.18,ESE,117,6.0,8.0,75,0.00,,CLR,0.00,VWS V14.01,2013-07-15 14:35:00,
2013-07-15 09:40:00,76.5,67.2,30.18,ESE,115,4.0,8.0,73,0.00,,CLR,0.00,VWS V14.01,2013-07-15 14:40:00,
2013-07-15 09:45:00,76.9,68.0,30.18,ESE,107,5.0,8.0,74,0.00,,CLR,0.00,VWS V14.01,2013-07-15 14:45:00,
2013-07-15 09:50:00,77.2,67.5,30.18,SE,136,4.0,8.0,72,0.00,,CLR,0.00,VWS V14.01,2013-07-15 14:50:00,
2013-07-15 09:55:00,77.6,67.1,30.18,SE,128,5.0,8.0,70,0.00,,CLR,0.00,VWS V14.01,2013-07-15 14:55:00,
2013-07-15 10:00:00,78.0,67.8,30.18,ESE,105,3.0,8.0,71,0.00,,CLR,0.00,VWS V14.01,2013-07-15 15:00:00,
2013-07-15 10:06:00,78.2,67.6,30.18,East,95,3.0,7.0,70,0.00,,CLR,0.00,VWS V14.01,2013-07-15 15:06:00,
2013-07-15 10:11:00,78.5,67.9,30.18,East,97,5.0,7.0,70,0.00,,CLR,0.00,VWS V14.01,2013-07-15 15:11:00,
2013-07-15 10:16:00,78.8,68.2,30.18,ESE,110,4.0,9.0,70,0.00,,CLR,0.00,VWS V14.01,2013-07-15 15:16:00,
2013-07-15 10:21:00,79.0,68.4,30.18,ESE,105,4.0,9.0,70,0.00,,CLR,0.00,VWS V14.01,2013-07-15 15:21:00,
2013-07-15 10:26:00,79.2,68.2,30.18,SE,146,3.0,9.0,69,0.00,,CLR,0.00,VWS V14.01,2013-07-15 15:26:00,
2013-07-15 10:31:00,79.5,68.4,30.18,SE,124,4.0,4.0,69,0.00,,CLR,0.00,VWS V14.01,2013-07-15 15:31:00,
2013-07-15 10:36:00,79.8,67.4,30.18,ESE,107,5.0,7.0,66,0.00,,CLR,0.00,VWS V14.01,2013-07-15 15:36:00,
2013-07-15 10:41:00,80.0,66.7,30.18,SE,129,6.0,7.0,64,0.00,,CLR,0.00,VWS V14.01,2013-07-15 15:41:00,
2013-07-15 10:46:00,80.5,67.7,30.17,ESE,107,4.0,7.0,65,0.00,,CLR,0.00,VWS V14.01,2013-07-15 15:46:00,
2013-07-15 10:51:00,80.6,65.9,30.18,SE,134,1.0,7.0,61,0.00,,CLR,0.00,VWS V14.01,2013-07-15 15:51:00,
2013-07-15 10:56:00,80.8,67.9,30.18,East,98,7.0,8.0,65,0.00,,CLR,0.00,VWS V14.01,2013-07-15 15:56:00,
2013-07-15 11:01:00,81.0,68.6,30.18,SE,129,3.0,5.0,66,0.00,,CLR,0.00,VWS V14.01,2013-07-15 16:01:00,
2013-07-15 11:06:00,80.9,68.0,30.18,SE,129,5.0,9.0,65,0.00,,CLR,0.00,VWS V14.01,2013-07-15 16:06:00,
2013-07-15 11:11:00,81.0,67.2,30.18,SE,135,6.0,9.0,63,0.00,,CLR,0.00,VWS V14.01,2013-07-15 16:11:00,
2013-07-15 11:16:00,81.0,67.2,30.18,SE,136,4.0,10.0,63,0.00,,CLR,0.00,VWS V14.01,2013-07-15 16:16:00,
2013-07-15 11:21:00,81.3,67.5,30.18,East,100,5.0,10.0,63,0.00,,CLR,0.00,VWS V14.01,2013-07-15 16:21:00,
2013-07-15 11:26:00,81.3,67.5,30.18,ESE,109,3.0,10.0,63,0.00,,CLR,0.00,VWS V14.01,2013-07-15 16:26:00,
2013-07-15 11:31:00,81.0,67.7,30.17,ESE,110,7.0,7.0,64,0.00,,CLR,0.00,VWS V14.01,2013-07-15 16:31:00,
2013-07-15 11:36:00,81.3,66.1,30.17,SE,124,4.0,7.0,60,0.00,,CLR,0.00,VWS V14.01,2013-07-15 16:36:00,
2013-07-15 11:42:00,81.9,66.2,30.17,SSE,155,4.0,8.0,59,0.00,,CLR,0.00,VWS V14.01,2013-07-15 16:42:00,
2013-07-15 11:47:00,82.5,65.8,30.17,SE,135,7.0,11.0,57,0.00,,CLR,0.00,VWS V14.01,2013-07-15 16:47:00,
2013-07-15 11:52:00,82.4,66.2,30.17,East,88,4.0,11.0,58,0.00,,CLR,0.00,VWS V14.01,2013-07-15 16:52:00,
2013-07-15 11:57:00,82.1,65.4,30.17,ESE,117,7.0,11.0,57,0.00,,BKN041,0.00,VWS V14.01,2013-07-15 16:57:00,
2013-07-15 12:02:00,82.2,67.4,30.17,ESE,120,6.0,6.0,61,0.00,,BKN041,0.00,VWS V14.01,2013-07-15 17:02:00,
2013-07-15 12:07:00,82.2,66.5,30.17,SSE,147,2.0,8.0,59,0.00,,BKN041,0.00,VWS V14.01,2013-07-15 17:07:00,
2013-07-15 12:12:00,82.2,66.9,30.18,East,94,1.0,12.0,60,0.00,,BKN041,0.00,VWS V14.01,2013-07-15 17:12:00,
2013-07-15 12:17:00,82.0,66.8,30.17,East,91,6.0,12.0,60,0.00,,BKN041,0.00,VWS V14.01,2013-07-15 17:17:00,
2013-07-15 12:22:00,82.3,68.5,30.17,SE,145,9.0,12.0,63,0.00,,BKN041,0.00,VWS V14.01,2013-07-15 17:22:00,
2013-07-15 12:27:00,82.4,68.1,30.17,SSE,155,4.0,12.0,62,0.00,,BKN041,0.00,VWS V14.01,2013-07-15 17:27:00,
2013-07-15 12:32:00,82.6,69.2,30.17,SSE,152,5.0,10.0,64,0.00,,BKN041,0.00,VWS V14.01,2013-07-15 17:32:00,
2013-07-15 12:37:00,83.1,69.2,30.17,ESE,107,9.0,10.0,63,0.00,,BKN041,0.00,VWS V14.01,2013-07-15 17:37:00,
2013-07-15 12:42:00,83.0,69.6,30.17,SSE,158,6.0,10.0,64,0.00,,BKN041,0.00,VWS V14.01,2013-07-15 17:42:00,
2013-07-15 12:48:00,83.1,69.2,30.17,ESE,105,5.0,11.0,63,0.00,,BKN041,0.00,VWS V14.01,2013-07-15 17:48:00,
2013-07-15 12:53:00,83.3,67.5,30.17,SE,133,10.0,13.0,59,0.00,,BKN041,0.00,VWS V14.01,2013-07-15 17:53:00,
2013-07-15 12:58:00,83.6,68.3,30.17,ESE,122,10.0,13.0,60,0.00,,BKN041,0.00,VWS V14.01,2013-07-15 17:58:00,
2013-07-15 13:03:00,83.2,69.3,30.16,SE,127,5.0,11.0,63,0.00,,BKN060,0.00,VWS V14.01,2013-07-15 18:03:00,
2013-07-15 13:08:00,83.2,68.4,30.17,ESE,115,8.0,13.0,61,0.00,,BKN060,0.00,VWS V14.01,2013-07-15 18:08:00,
2013-07-15 13:13:00,83.6,69.2,30.17,ESE,117,8.0,13.0,62,0.00,,BKN060,0.00,VWS V14.01,2013-07-15 18:13:00,
2013-07-15 13:18:00,83.7,68.3,30.16,ESE,103,11.0,13.0,60,0.00,,BKN060,0.00,VWS V14.01,2013-07-15 18:18:00,
2013-07-15 13:23:00,83.3,68.9,30.16,ESE,103,4.0,13.0,62,0.00,,BKN060,0.00,VWS V14.01,2013-07-15 18:23:00,
2013-07-15 13:28:00,83.1,67.8,30.16,SE,143,8.0,13.0,60,0.00,,BKN060,0.00,VWS V14.01,2013-07-15 18:28:00,
2013-07-15 13:33:00,83.0,68.7,30.16,SE,140,9.0,9.0,62,0.00,,BKN060,0.00,VWS V14.01,2013-07-15 18:33:00,
2013-07-15 13:38:00,83.2,68.4,30.16,East,95,7.0,11.0,61,0.00,,BKN060,0.00,VWS V14.01,2013-07-15 18:38:00,
2013-07-15 13:43:00,83.1,69.2,30.16,ESE,102,5.0,12.0,63,0.00,,BKN060,0.00,VWS V14.01,2013-07-15 18:43:00,
2013-07-15 13:48:00,83.1,69.7,30.15,East,90,5.0,12.0,64,0.00,,BKN060,0.00,VWS V14.01,2013-07-15 18:48:00,
2013-07-15 13:53:00,83.3,68.9,30.15,SE,145,4.0,13.0,62,0.00,,BKN060,0.00,VWS V14.01,2013-07-15 18:53:00,
2013-07-15 13:58:00,83.5,70.5,30.15,East,100,9.0,13.0,65,0.00,,OVC090,0.00,VWS V14.01,2013-07-15 18:58:00,
2013-07-15 14:03:00,83.7,70.2,30.15,ESE,122,5.0,14.0,64,0.00,,OVC090,0.00,VWS V14.01,2013-07-15 19:03:00,
2013-07-15 14:08:00,83.5,69.6,30.15,East,90,1.0,14.0,63,0.00,,OVC090,0.00,VWS V14.01,2013-07-15 19:08:00,
2013-07-15 14:13:00,83.8,69.9,30.15,East,94,9.0,14.0,63,0.00,,OVC090,0.00,VWS V14.01,2013-07-15 19:13:00,
2013-07-15 14:18:00,84.1,70.2,30.15,East,99,9.0,14.0,63,0.00,,OVC090,0.00,VWS V14.01,2013-07-15 19:18:00,
2013-07-15 14:23:00,84.6,68.7,30.15,SE,141,6.0,14.0,59,0.00,,OVC090,0.00,VWS V14.01,2013-07-15 19:23:00,
2013-07-15 14:28:00,84.6,69.2,30.14,SE,141,8.0,15.0,60,0.00,,OVC090,0.00,VWS V14.01,2013-07-15 19:28:00,
2013-07-15 14:34:00,84.2,69.3,30.14,South,173,3.0,11.0,61,0.00,,OVC090,0.00,VWS V14.01,2013-07-15 19:34:00,
2013-07-15 14:39:00,84.5,70.1,30.14,SSE,150,10.0,11.0,62,0.00,,OVC090,0.00,VWS V14.01,2013-07-15 19:39:00,
2013-07-15 14:44:00,84.5,69.6,30.14,SSW,200,7.0,14.0,61,0.00,,OVC090,0.00,VWS V14.01,2013-07-15 19:44:00,
2013-07-15 14:49:00,84.8,69.4,30.14,SSE,153,6.0,14.0,60,0.00,,OVC090,0.00,VWS V14.01,2013-07-15 19:49:00,
2013-07-15 14:54:00,85.3,69.8,30.14,SSE,155,9.0,14.0,60,0.00,,OVC090,0.00,VWS V14.01,2013-07-15 19:54:00,
2013-07-15 14:59:00,84.5,69.1,30.13,SE,145,7.0,14.0,60,0.00,,OVC055,0.00,VWS V14.01,2013-07-15 19:59:00,
2013-07-15 15:04:00,84.3,69.4,30.13,South,185,5.0,12.0,61,0.00,,OVC055,0.00,VWS V14.01,2013-07-15 20:04:00,
2013-07-15 15:09:00,84.5,69.6,30.13,ESE,122,9.0,12.0,61,0.00,,OVC055,0.00,VWS V14.01,2013-07-15 20:09:00,
2013-07-15 15:14:00,84.8,68.9,30.13,SE,136,6.0,12.0,59,0.00,,OVC055,0.00,VWS V14.01,2013-07-15 20:14:00,
2013-07-15 15:19:00,84.9,70.0,30.13,SE,134,10.0,13.0,61,0.00,,OVC055,0.00,VWS V14.01,2013-07-15 20:19:00,
2013-07-15 15:25:00,84.9,69.5,30.13,SE,140,8.0,15.0,60,0.00,,OVC055,0.00,VWS V14.01,2013-07-15 20:25:00,
2013-07-15 15:30:00,84.8,69.9,30.12,ESE,122,7.0,15.0,61,0.00,,OVC055,0.00,VWS V14.01,2013-07-15 20:30:00,
2013-07-15 15:35:00,85.1,70.2,30.12,SE,135,8.0,13.0,61,0.00,,OVC055,0.00,VWS V14.01,2013-07-15 20:35:00,
2013-07-15 15:40:00,85.1,69.2,30.12,ESE,121,6.0,13.0,59,0.00,,OVC055,0.00,VWS V14.01,2013-07-15 20:40:00,
2013-07-15 15:45:00,85.2,69.8,30.12,SSE,150,3.0,13.0,60,0.00,,OVC055,0.00,VWS V14.01,2013-07-15 20:45:00,
2013-07-15 15:50:00,85.5,70.5,30.12,ESE,117,9.0,13.0,61,0.00,,OVC055,0.00,VWS V14.01,2013-07-15 20:50:00,
2013-07-15 15:55:00,85.1,70.6,30.12,SE,131,5.0,13.0,62,0.00,,OVC055,0.00,VWS V14.01,2013-07-15 20:55:00,
2013-07-15 16:00:00,85.6,71.6,30.12,SSE,153,5.0,15.0,63,0.00,,FEW045,0.00,VWS V14.01,2013-07-15 21:00:00,
2013-07-15 16:05:00,85.7,69.7,30.12,ESE,114,9.0,13.0,59,0.00,,FEW045,0.00,VWS V14.01,2013-07-15 21:05:00,
2013-07-15 16:10:00,85.4,69.9,30.12,SE,134,8.0,13.0,60,0.00,,FEW045,0.00,VWS V14.01,2013-07-15 21:10:00,
2013-07-15 16:15:00,85.7,69.7,30.11,SE,134,7.0,13.0,59,0.00,,FEW045,0.00,VWS V14.01,2013-07-15 21:15:00,
2013-07-15 16:21:00,86.0,68.5,30.11,SSE,148,9.0,14.0,56,0.00,,FEW045,0.00,VWS V14.01,2013-07-15 21:21:00,
2013-07-15 16:26:00,86.1,69.6,30.11,SSE,153,9.0,14.0,58,0.00,,FEW045,0.00,VWS V14.01,2013-07-15 21:26:00,
2013-07-15 16:31:00,85.7,69.2,30.11,SSE,153,9.0,11.0,58,0.00,,FEW045,0.00,VWS V14.01,2013-07-15 21:31:00,
2013-07-15 16:36:00,85.5,70.5,30.11,SE,133,10.0,12.0,61,0.00,,FEW045,0.00,VWS V14.01,2013-07-15 21:36:00,
2013-07-15 16:41:00,85.1,70.2,30.11,SE,145,8.0,14.0,61,0.00,,FEW045,0.00,VWS V14.01,2013-07-15 21:41:00,
2013-07-15 16:46:00,84.9,70.0,30.11,SSE,150,5.0,14.0,61,0.00,,FEW045,0.00,VWS V14.01,2013-07-15 21:46:00,
2013-07-15 16:51:00,85.5,70.5,30.11,ESE,109,10.0,14.0,61,0.00,,FEW045,0.00,VWS V14.01,2013-07-15 21:51:00,
2013-07-15 16:56:00,85.9,70.4,30.11,SE,128,8.0,14.0,60,0.00,,FEW045,0.00,VWS V14.01,2013-07-15 21:56:00,
2013-07-15 17:01:00,85.7,69.7,30.10,ESE,110,7.0,10.0,59,0.00,,BKN085,0.00,VWS V14.01,2013-07-15 22:01:00,
2013-07-15 17:06:00,85.4,69.9,30.10,SSE,153,10.0,15.0,60,0.00,,BKN085,0.00,VWS V14.01,2013-07-15 22:06:00,
2013-07-15 17:11:00,85.7,69.7,30.10,SE,138,11.0,15.0,59,0.00,,BKN085,0.00,VWS V14.01,2013-07-15 22:11:00,
2013-07-15 17:16:00,86.2,69.7,30.10,SE,136,6.0,15.0,58,0.00,,BKN085,0.00,VWS V14.01,2013-07-15 22:16:00,
2013-07-15 17:21:00,86.2,69.7,30.10,SE,141,11.0,15.0,58,0.00,,BKN085,0.00,VWS V14.01,2013-07-15 22:21:00,
2013-07-15 17:26:00,86.1,70.6,30.10,SE,141,9.0,15.0,60,0.00,,BKN085,0.00,VWS V14.01,2013-07-15 22:26:00,
2013-07-15 17:32:00,86.2,70.2,30.10,SE,140,10.0,13.0,59,0.00,,BKN085,0.00,VWS V14.01,2013-07-15 22:32:00,
2013-07-15 17:37:00,86.0,70.5,30.10,SE,138,7.0,14.0,60,0.00,,BKN085,0.00,VWS V14.01,2013-07-15 22:37:00,
2013-07-15 17:42:00,86.2,69.7,30.10,SE,132,6.0,14.0,58,0.00,,BKN085,0.00,VWS V14.01,2013-07-15 22:42:00,
2013-07-15 17:47:00,85.8,69.8,30.09,SSE,155,10.0,14.0,59,0.00,,BKN085,0.00,VWS V14.01,2013-07-15 22:47:00,
2013-07-15 17:52:00,85.3,69.8,30.09,SE,145,10.0,14.0,60,0.00,,BKN085,0.00,VWS V14.01,2013-07-15 22:52:00,
2013-07-15 17:57:00,85.5,70.0,30.09,SE,140,11.0,14.0,60,0.00,,BKN085,0.00,VWS V14.01,2013-07-15 22:57:00,
2013-07-15 18:02:00,85.9,70.4,30.09,SSE,166,6.0,10.0,60,0.00,,CLR,0.00,VWS V14.01,2013-07-15 23:02:00,
2013-07-15 18:07:00,86.2,70.7,30.09,SE,145,7.0,10.0,60,0.00,,CLR,0.00,VWS V14.01,2013-07-15 23:07:00,
2013-07-15 18:12:00,86.6,70.6,30.09,SE,141,7.0,11.0,59,0.00,,CLR,0.00,VWS V14.01,2013-07-15 23:12:00,
2013-07-15 18:17:00,86.6,71.6,30.09,SE,133,6.0,13.0,61,0.00,,CLR,0.00,VWS V14.01,2013-07-15 23:17:00,
2013-07-15 18:22:00,86.5,71.0,30.09,SE,139,7.0,13.0,60,0.00,,CLR,0.00,VWS V14.01,2013-07-15 23:22:00,
2013-07-15 18:27:00,86.2,70.2,30.09,SE,134,7.0,13.0,59,0.00,,CLR,0.00,VWS V14.01,2013-07-15 23:27:00,
2013-07-15 18:32:00,86.0,70.5,30.09,SE,139,9.0,12.0,60,0.00,,CLR,0.00,VWS V14.01,2013-07-15 23:32:00,
2013-07-15 18:38:00,85.6,71.1,30.09,SE,141,7.0,12.0,62,0.00,,CLR,0.00,VWS V14.01,2013-07-15 23:38:00,
2013-07-15 18:43:00,85.8,70.3,30.09,SE,138,7.0,12.0,60,0.00,,CLR,0.00,VWS V14.01,2013-07-15 23:43:00,
2013-07-15 18:48:00,85.7,70.7,30.09,SSE,152,11.0,14.0,61,0.00,,CLR,0.00,VWS V14.01,2013-07-15 23:48:00,
2013-07-15 18:53:00,85.2,70.7,30.09,SE,145,13.0,14.0,62,0.00,,CLR,0.00,VWS V14.01,2013-07-15 23:53:00,
2013-07-15 18:58:00,84.9,70.9,30.09,SSE,158,8.0,14.0,63,0.00,,BKN044,0.00,VWS V14.01,2013-07-15 23:58:00,
2013-07-15 19:03:00,84.9,71.4,30.09,SE,139,7.0,9.0,64,0.00,,BKN044,0.00,VWS V14.01,2013-07-16 00:03:00,
2013-07-15 19:08:00,84.5,71.0,30.09,SSE,160,9.0,11.0,64,0.00,,BKN044,0.00,VWS V14.01,2013-07-16 00:08:00,
2013-07-15 19:13:00,84.6,71.1,30.09,SE,128,7.0,11.0,64,0.00,,BKN044,0.00,VWS V14.01,2013-07-16 00:13:00,
2013-07-15 19:18:00,84.5,71.4,30.09,SSE,148,6.0,11.0,65,0.00,,BKN044,0.00,VWS V14.01,2013-07-16 00:18:00,
2013-07-15 19:23:00,84.5,71.4,30.09,ESE,116,8.0,12.0,65,0.00,,BKN044,0.00,VWS V14.01,2013-07-16 00:23:00,
2013-07-15 19:28:00,84.4,71.4,30.09,East,98,8.0,13.0,65,0.00,,BKN044,0.00,VWS V14.01,2013-07-16 00:28:00,
2013-07-15 19:33:00,84.2,72.1,30.09,SE,125,8.0,10.0,67,0.00,,BKN044,0.00,VWS V14.01,2013-07-16 00:33:00,
2013-07-15 19:38:00,83.9,71.3,30.09,ESE,119,8.0,10.0,66,0.00,,BKN044,0.00,VWS V14.01,2013-07-16 00:38:00,
2013-07-15 19:43:00,83.7,71.1,30.09,SE,127,8.0,10.0,66,0.00,,BKN044,0.00,VWS V14.01,2013-07-16 00:43:00,
2013-07-15 19:48:00,83.4,71.3,30.09,SE,136,6.0,10.0,67,0.00,,BKN044,0.00,VWS V14.01,2013-07-16 00:48:00,
2013-07-15 19:53:00,83.2,71.1,30.09,ESE,123,8.0,12.0,67,0.00,,BKN044,0.00,VWS V14.01,2013-07-16 00:53:00,
2013-07-15 19:58:00,82.9,70.8,30.09,ESE,123,6.0,12.0,67,0.00,,BKN044,0.00,VWS V14.01,2013-07-16 00:58:00,
2013-07-15 20:04:00,82.8,71.2,30.09,ESE,122,7.0,9.0,68,0.00,,CLR,0.00,VWS V14.01,2013-07-16 01:04:00,
2013-07-15 20:09:00,82.6,71.0,30.09,ESE,115,5.0,9.0,68,0.00,,CLR,0.00,VWS V14.01,2013-07-16 01:09:00,
2013-07-15 20:14:00,82.4,71.2,30.09,SE,131,7.0,9.0,69,0.00,,CLR,0.00,VWS V14.01,2013-07-16 01:14:00,
2013-07-15 20:19:00,82.3,71.5,30.09,ESE,115,4.0,9.0,70,0.00,,CLR,0.00,VWS V14.01,2013-07-16 01:19:00,
2013-07-15 20:24:00,82.2,71.9,30.09,ESE,122,4.0,9.0,71,0.00,,CLR,0.00,VWS V14.01,2013-07-16 01:24:00,
2013-07-15 20:29:00,82.0,72.1,30.09,SE,136,4.0,9.0,72,0.00,,CLR,0.00,VWS V14.01,2013-07-16 01:29:00,
2013-07-15 20:34:00,81.8,71.9,30.09,SE,141,5.0,7.0,72,0.00,,CLR,0.00,VWS V14.01,2013-07-16 01:34:00,
2013-07-15 20:40:00,81.6,72.1,30.09,SE,129,4.0,7.0,73,0.00,,CLR,0.00,VWS V14.01,2013-07-16 01:40:00,
2013-07-15 20:45:00,81.3,71.8,30.09,SE,125,4.0,7.0,73,0.00,,CLR,0.00,VWS V14.01,2013-07-16 01:45:00,
2013-07-15 20:50:00,81.0,71.9,30.09,SE,131,5.0,7.0,74,0.00,,CLR,0.00,VWS V14.01,2013-07-16 01:50:00,
2013-07-15 20:55:00,80.7,72.0,30.09,ESE,123,4.0,7.0,75,0.00,,CLR,0.00,VWS V14.01,2013-07-16 01:55:00,
2013-07-15 21:00:00,80.3,72.1,30.09,SSE,148,5.0,7.0,76,0.00,,BKN090,0.00,VWS V14.01,2013-07-16 02:00:00,
2013-07-15 21:05:00,79.9,72.1,30.09,SE,145,4.0,4.0,77,0.00,,BKN090,0.00,VWS V14.01,2013-07-16 02:05:00,
2013-07-15 21:10:00,79.5,72.0,30.09,SE,138,3.0,5.0,78,0.00,,BKN090,0.00,VWS V14.01,2013-07-16 02:10:00,
2013-07-15 21:15:00,79.3,71.8,30.10,SE,131,3.0,5.0,78,0.00,,BKN090,0.00,VWS V14.01,2013-07-16 02:15:00,
2013-07-15 21:20:00,79.1,72.0,30.10,SE,133,4.0,5.0,79,0.00,,BKN090,0.00,VWS V14.01,2013-07-16 02:20:00,
2013-07-15 21:25:00,79.0,71.9,30.10,SSE,159,2.0,5.0,79,0.00,,BKN090,0.00,VWS V14.01,2013-07-16 02:25:00,
2013-07-15 21:30:00,78.9,71.8,30.10,ESE,120,4.0,5.0,79,0.00,,BKN090,0.00,VWS V14.01,2013-07-16 02:30:00,
2013-07-15 21:35:00,78.7,71.6,30.10,SE,138,4.0,5.0,79,0.00,,BKN090,0.00,VWS V14.01,2013-07-16 02:35:00,
2013-07-15 21:41:00,78.5,71.8,30.10,ESE,119,4.0,5.0,80,0.00,,BKN090,0.00,VWS V14.01,2013-07-16 02:41:00,
2013-07-15 21:46:00,78.1,71.8,30.10,SE,133,3.0,5.0,81,0.00,,BKN090,0.00,VWS V14.01,2013-07-16 02:46:00,
2013-07-15 21:51:00,77.8,71.5,30.11,SE,133,2.0,5.0,81,0.00,,BKN090,0.00,VWS V14.01,2013-07-16 02:51:00,
2013-07-15 21:56:00,77.6,71.7,30.11,ESE,123,3.0,5.0,82,0.00,,CLR,0.00,VWS V14.01,2013-07-16 02:56:00,
2013-07-15 22:01:00,77.4,71.8,30.11,ESE,110,2.0,3.0,83,0.00,,CLR,0.00,VWS V14.01,2013-07-16 03:01:00,
2013-07-15 22:06:00,77.2,71.6,30.11,ESE,115,4.0,4.0,83,0.00,,CLR,0.00,VWS V14.01,2013-07-16 03:06:00,
2013-07-15 22:11:00,77.2,71.6,30.11,SE,125,3.0,6.0,83,0.00,,CLR,0.00,VWS V14.01,2013-07-16 03:11:00,
2013-07-15 22:16:00,77.0,71.4,30.11,SE,129,3.0,6.0,83,0.00,,CLR,0.00,VWS V14.01,2013-07-16 03:16:00,
2013-07-15 22:21:00,76.8,71.6,30.11,SE,131,3.0,6.0,84,0.00,,CLR,0.00,VWS V14.01,2013-07-16 03:21:00,
2013-07-15 22:26:00,76.6,71.4,30.11,ESE,108,3.0,6.0,84,0.00,,CLR,0.00,VWS V14.01,2013-07-16 03:26:00,
2013-07-15 22:31:00,76.3,71.5,30.11,ESE,106,3.0,3.0,85,0.00,,CLR,0.00,VWS V14.01,2013-07-16 03:31:00,
2013-07-15 22:37:00,76.1,71.6,30.11,SE,127,3.0,4.0,86,0.00,,CLR,0.00,VWS V14.01,2013-07-16 03:37:00,
2013-07-15 22:42:00,76.0,71.5,30.11,ESE,114,3.0,4.0,86,0.00,,CLR,0.00,VWS V14.01,2013-07-16 03:42:00,
2013-07-15 22:47:00,75.8,71.3,30.11,SE,134,3.0,4.0,86,0.00,,CLR,0.00,VWS V14.01,2013-07-16 03:47:00,
2013-07-15 22:52:00,75.7,71.2,30.11,SE,131,2.0,4.0,86,0.00,,CLR,0.00,VWS V14.01,2013-07-16 03:52:00,
2013-07-15 22:57:00,75.5,71.4,30.12,SE,141,2.0,4.0,87,0.00,,CLR,0.00,VWS V14.01,2013-07-16 03:57:00,
2013-07-15 23:01:00,75.4,71.3,30.12,SSE,152,5.0,5.0,87,0.00,,CLR,0.00,VWS V14.01,2013-07-16 04:01:00,
2013-07-15 23:06:00,75.5,71.4,30.12,SE,141,2.0,5.0,87,0.00,,CLR,0.00,VWS V14.01,2013-07-16 04:06:00,
2013-07-15 23:11:00,75.5,71.4,30.12,ESE,123,1.0,5.0,87,0.00,,CLR,0.00,VWS V14.01,2013-07-16 04:11:00,
2013-07-15 23:16:00,75.3,71.5,30.12,SE,145,1.0,5.0,88,0.00,,CLR,0.00,VWS V14.01,2013-07-16 04:16:00,
2013-07-15 23:21:00,75.2,71.4,30.12,SE,135,1.0,5.0,88,0.00,,CLR,0.00,VWS V14.01,2013-07-16 04:21:00,
2013-07-15 23:26:00,75.3,71.5,30.12,ESE,118,3.0,5.0,88,0.00,,CLR,0.00,VWS V14.01,2013-07-16 04:26:00,
2013-07-15 23:31:00,75.4,71.6,30.12,SE,131,2.0,3.0,88,0.00,,CLR,0.00,VWS V14.01,2013-07-16 04:31:00,
2013-07-15 23:36:00,75.4,71.6,30.12,ESE,111,3.0,6.0,88,0.00,,CLR,0.00,VWS V14.01,2013-07-16 04:36:00,
2013-07-15 23:41:00,75.4,71.6,30.12,ESE,115,3.0,6.0,88,0.00,,CLR,0.00,VWS V14.01,2013-07-16 04:41:00,
2013-07-15 23:46:00,75.3,71.5,30.12,ESE,110,4.0,6.0,88,0.00,,CLR,0.00,VWS V14.01,2013-07-16 04:46:00,
2013-07-15 23:51:00,75.3,71.5,30.12,ESE,122,4.0,6.0,88,0.00,,CLR,0.00,VWS V14.01,2013-07-16 04:51:00,
2013-07-15 23:56:00,75.2,71.4,30.13,ESE,115,4.0,6.0,88,0.00,,CLR,0.00,VWS V14.01,2013-07-16 04:56:00,